EW0908 Weather Reports


Display with metric or nautical units.
time (UTC)temp
F
wind
direction
speed
MPH
gust
MPH
rain 1hr
in
rain 24hr
in
rain mn
in
humidity
%
barometer
mb
20170624014828 74 2 0.0 0.0 0.00 0.00 0.00 59 1013.2
20170624014328 74 340 0.0 0.0 0.00 0.00 0.00 58 1013.2
20170624013828 74 281 0.0 0.0 0.00 0.00 0.00 60 1013.2
20170624013328 74 280 0.0 0.0 0.00 0.00 0.00 61 1013.4
20170624012829 74 332 0.0 0.0 0.00 0.00 0.00 63 1013.5
20170624012329 74 336 0.0 0.0 0.00 0.00 0.00 64 1013.5
20170624011828 74 294 0.0 0.0 0.00 0.00 0.00 66 1013.5
20170624011329 74 332 0.0 0.0 0.00 0.00 0.00 67 1013.5
20170624010828 74 316 0.0 0.0 0.00 0.00 0.00 68 1013.5
20170624010328 74 324 0.0 0.0 0.00 0.00 0.00 68 1013.5
20170624005828 74 342 0.0 0.0 0.00 0.00 0.00 68 1013.5
20170624005328 74 10 0.0 0.0 0.00 0.00 0.00 68 1013.5
20170624004828 74 6 0.0 0.0 0.00 0.00 0.00 68 1013.9
20170624004328 74 11 0.0 0.0 0.00 0.00 0.00 67 1013.9
20170624003828 74 352 0.0 0.0 0.00 0.00 0.00 65 1013.9
20170624003328 75 353 0.0 0.0 0.00 0.00 0.00 62 1013.9
20170624002828 75 358 0.0 0.0 0.00 0.00 0.00 63 1013.9
20170624002328 75 2 0.0 0.0 0.00 0.00 0.00 64 1013.9
20170624001828 76 1 0.0 0.0 0.00 0.00 0.00 64 1013.9
20170624001328 76 4 0.0 0.0 0.00 0.00 0.00 65 1013.9
20170624000828 76 4 0.0 0.0 0.00 0.00 0.00 62 1013.9
20170624000328 76 159 0.0 0.0 0.00 0.00 0.00 62 1013.9
20170623235828 76 232 0.0 0.0 0.00 0.00 0.00 62 1013.9
20170623235328 76 230 0.0 0.0 0.00 0.00 0.00 61 1013.9
20170623234828 76 216 0.0 0.0 0.00 0.00 0.00 60 1013.9
20170623234327 76 161 0.0 2.0 0.00 0.00 0.00 60 1013.9
20170623233828 77 187 0.0 0.0 0.00 0.00 0.00 59 1013.9
20170623233328 77 146 0.0 0.0 0.00 0.00 0.00 58 1014.0
20170623232827 77 160 0.0 2.0 0.00 0.00 0.00 57 1013.9
20170623232328 77 185 0.0 2.0 0.00 0.00 0.00 57 1013.9
20170623231827 77 153 1.0 5.0 0.00 0.00 0.00 57 1014.2
20170623231328 77 149 0.0 2.0 0.00 0.00 0.00 58 1013.9
20170623230827 77 162 0.0 2.0 0.00 0.00 0.00 57 1014.2
20170623230327 77 149 0.0 0.0 0.00 0.00 0.00 57 1014.0
20170623225828 77 116 0.0 0.0 0.00 0.00 0.00 58 1014.2
20170623225328 77 258 0.0 0.0 0.00 0.00 0.00 59 1014.2
20170623224828 78 267 0.0 0.0 0.00 0.00 0.00 58 1014.2
20170623224328 78 181 0.0 0.0 0.00 0.00 0.00 55 1014.2
20170623223828 78 170 0.0 0.0 0.00 0.00 0.00 53 1014.2
20170623223328 78 143 0.0 2.0 0.00 0.00 0.00 53 1014.2
20170623222828 78 169 0.0 2.0 0.00 0.00 0.00 53 1014.5
20170623222327 78 172 0.0 0.0 0.00 0.00 0.00 52 1014.2
20170623221828 78 147 0.0 2.0 0.00 0.00 0.00 52 1014.2
20170623221328 78 122 1.0 5.0 0.00 0.00 0.00 52 1014.2
20170623220827 78 120 2.0 5.0 0.00 0.00 0.00 51 1014.2
20170623220327 78 109 1.0 5.0 0.00 0.00 0.00 51 1014.2
20170623215827 78 149 5.0 8.0 0.00 0.00 0.00 52 1014.2
20170623215328 78 138 2.0 8.0 0.00 0.00 0.00 53 1014.2
20170623214828 79 164 4.0 8.0 0.00 0.00 0.00 54 1014.2
20170623214327 79 147 3.0 8.0 0.00 0.00 0.00 54 1014.2
20170623213828 79 162 1.0 2.0 0.00 0.00 0.00 55 1014.4
20170623213328 79 172 0.0 5.0 0.00 0.00 0.00 54 1014.4
20170623212827 80 157 2.0 5.0 0.00 0.00 0.00 55 1014.6
20170623212327 80 132 1.0 8.0 0.00 0.00 0.00 54 1014.6
20170623211828 80 97 1.0 8.0 0.00 0.00 0.00 53 1014.4
20170623211328 80 138 6.0 10.0 0.00 0.00 0.00 53 1014.2
20170623210840 80 149 7.0 10.0 0.00 0.00 0.00 52 1014.2
20170623210328 80 164 6.0 10.0 0.00 0.00 0.00 52 1014.2
20170623205828 80 155 7.0 13.0 0.00 0.00 0.00 50 1014.2
20170623205327 80 136 6.0 10.0 0.00 0.00 0.00 50 1014.2
20170623204828 80 132 6.0 13.0 0.00 0.00 0.00 50 1014.2
20170623204327 80 146 8.0 13.0 0.00 0.00 0.00 50 1014.2
20170623203827 80 151 7.0 13.0 0.00 0.00 0.00 49 1014.2
20170623203328 80 114 7.0 13.0 0.00 0.00 0.00 49 1014.2
20170623202828 80 144 9.0 13.0 0.00 0.00 0.00 49 1014.2
20170623202328 80 135 9.0 10.0 0.00 0.00 0.00 49 1014.2
20170623201827 80 145 7.0 13.0 0.00 0.00 0.00 49 1014.2
20170623201327 80 138 8.0 13.0 0.00 0.00 0.00 50 1013.9
20170623200828 80 140 10.0 15.0 0.00 0.00 0.00 50 1014.2
20170623200327 81 139 6.0 10.0 0.00 0.00 0.00 50 1014.2
20170623195827 81 129 6.0 10.0 0.00 0.00 0.00 50 1014.0
20170623195328 81 128 6.0 8.0 0.00 0.00 0.00 50 1014.0
20170623194828 81 153 5.0 8.0 0.00 0.00 0.00 51 1013.9
20170623194328 82 122 4.0 8.0 0.00 0.00 0.00 50 1014.2
20170623193827 82 161 1.0 8.0 0.00 0.00 0.00 50 1014.2
20170623193327 82 136 3.0 8.0 0.00 0.00 0.00 50 1014.2
20170623192828 82 168 3.0 8.0 0.00 0.00 0.00 49 1014.2
20170623192327 83 116 2.0 8.0 0.00 0.00 0.00 46 1014.2
20170623191827 83 133 1.0 5.0 0.00 0.00 0.00 44 1014.2
20170623191327 83 162 2.0 13.0 0.00 0.00 0.00 43 1013.9
20170623190827 83 141 6.0 10.0 0.00 0.00 0.00 43 1013.9
20170623190327 83 166 5.0 13.0 0.00 0.00 0.00 43 1013.9
20170623185827 84 151 7.0 13.0 0.00 0.00 0.00 43 1013.9
20170623185327 84 150 7.0 10.0 0.00 0.00 0.00 44 1013.9
20170623184827 84 143 6.0 13.0 0.00 0.00 0.00 43 1013.6
20170623184327 84 166 6.0 13.0 0.00 0.00 0.00 42 1013.5
20170623183827 84 145 4.0 10.0 0.00 0.00 0.00 42 1013.6
20170623183327 85 157 6.0 10.0 0.00 0.00 0.00 42 1013.5
20170623182828 85 153 6.0 10.0 0.00 0.00 0.00 42 1013.5
20170623182327 85 150 6.0 10.0 0.00 0.00 0.00 41 1013.5
20170623181826 85 158 6.0 13.0 0.00 0.00 0.00 41 1013.5
20170623181327 85 163 6.0 10.0 0.00 0.00 0.00 40 1013.5
20170623180827 85 144 4.0 8.0 0.00 0.00 0.00 41 1013.5
20170623180327 85 160 6.0 10.0 0.00 0.00 0.00 41 1013.5
20170623175827 86 191 5.0 10.0 0.00 0.00 0.00 40 1013.5
20170623175328 86 159 6.0 10.0 0.00 0.00 0.00 41 1013.5
20170623174827 86 144 7.0 13.0 0.00 0.00 0.00 41 1013.5
20170623174327 86 142 6.0 10.0 0.00 0.00 0.00 41 1013.5
20170623173826 87 152 6.0 13.0 0.00 0.00 0.00 41 1013.5
20170623173327 87 142 6.0 10.0 0.00 0.00 0.00 40 1013.5
20170623172827 87 193 6.0 13.0 0.00 0.00 0.00 41 1013.5
20170623172327 88 142 6.0 10.0 0.00 0.00 0.00 40 1013.5
20170623171827 88 156 6.0 13.0 0.00 0.00 0.00 40 1013.5
20170623171327 88 148 4.0 10.0 0.00 0.00 0.00 40 1013.5
20170623170827 89 122 2.0 10.0 0.00 0.00 0.00 39 1013.5
20170623170326 89 153 9.0 15.0 0.00 0.00 0.00 39 1013.5
20170623165827 89 155 4.0 10.0 0.00 0.00 0.00 40 1013.5
20170623165327 89 141 5.0 10.0 0.00 0.00 0.00 39 1013.5
20170623164827 90 169 7.0 10.0 0.00 0.00 0.00 40 1013.5
20170623164327 90 157 5.0 10.0 0.00 0.00 0.00 39 1013.5
20170623163827 91 159 6.0 10.0 0.00 0.00 0.00 38 1013.5
20170623163327 91 142 7.0 13.0 0.00 0.00 0.00 39 1013.5
20170623162827 92 160 6.0 13.0 0.00 0.00 0.00 38 1013.5
20170623162326 92 153 7.0 10.0 0.00 0.00 0.00 38 1013.5
20170623161827 93 174 4.0 10.0 0.00 0.00 0.00 37 1013.5
20170623161327 93 195 3.0 10.0 0.00 0.00 0.00 37 1013.5
20170623160826 93 149 5.0 10.0 0.00 0.00 0.00 35 1013.5
20170623160327 93 163 3.0 8.0 0.00 0.00 0.00 35 1013.5
20170623155827 93 155 5.0 10.0 0.00 0.00 0.00 35 1013.5
20170623155327 93 169 3.0 8.0 0.00 0.00 0.00 35 1013.5
20170623154826 93 154 3.0 8.0 0.00 0.00 0.00 35 1013.5
20170623154326 93 133 4.0 10.0 0.00 0.00 0.00 34 1013.5
20170623153826 94 161 7.0 13.0 0.00 0.00 0.00 34 1013.5
20170623153327 94 161 5.0 8.0 0.00 0.00 0.00 36 1013.5
20170623152826 94 183 3.0 10.0 0.00 0.00 0.00 35 1013.5
20170623152326 94 172 5.0 10.0 0.00 0.00 0.00 34 1013.5
20170623151826 94 156 6.0 8.0 0.00 0.00 0.00 33 1013.5
20170623151326 94 159 5.0 10.0 0.00 0.00 0.00 32 1013.5
20170623150826 94 148 7.0 10.0 0.00 0.00 0.00 32 1013.7
20170623150326 94 155 3.0 8.0 0.00 0.00 0.00 32 1013.5
20170623145827 94 108 3.0 8.0 0.00 0.00 0.00 35 1013.9
20170623145326 94 2 0.0 0.0 0.00 0.00 0.00 35 1013.9
20170623144827 95 1 0.0 0.0 0.00 0.00 0.00 37 1013.9
20170623144327 94 350 0.0 0.0 0.00 0.00 0.00 34 1014.0
20170623143826 94 3 0.0 0.0 0.00 0.00 0.00 35 1014.1
20170623143327 93 2 0.0 0.0 0.00 0.00 0.00 36 1014.2
20170623142826 92 35 0.0 0.0 0.00 0.00 0.00 34 1014.2
20170623142327 91 4 0.0 0.0 0.00 0.00 0.00 36 1014.2
20170623141826 90 1 0.0 0.0 0.00 0.00 0.00 38 1014.2
20170623141326 89 50 0.0 0.0 0.00 0.00 0.00 37 1014.2
20170623140826 89 2 1.0 2.0 0.00 0.00 0.00 40 1014.6
20170623140326 89 346 1.0 5.0 0.00 0.00 0.00 41 1014.6
20170623135826 89 9 2.0 5.0 0.00 0.00 0.00 42 1014.6
20170623135326 89 347 0.0 2.0 0.00 0.00 0.00 42 1014.6
20170623134827 88 357 0.0 0.0 0.00 0.00 0.00 48 1014.6
20170623134326 88 0 0.0 2.0 0.00 0.00 0.00 45 1014.6
20170623133827 88 12 1.0 2.0 0.00 0.00 0.00 43 1014.6
20170623133326 87 349 0.0 2.0 0.00 0.00 0.00 41 1014.6
20170623132826 87 31 1.0 5.0 0.00 0.00 0.00 42 1014.6
20170623132326 87 35 1.0 5.0 0.00 0.00 0.00 46 1014.6
20170623131826 87 4 2.0 5.0 0.00 0.00 0.00 48 1014.9
20170623131326 87 10 2.0 5.0 0.00 0.00 0.00 47 1014.9
20170623130826 87 324 0.0 2.0 0.00 0.00 0.00 47 1014.9
20170623130326 87 10 1.0 5.0 0.00 0.00 0.00 47 1015.2
20170623125826 88 6 1.0 5.0 0.00 0.00 0.00 45 1015.2
20170623125326 88 2 2.0 5.0 0.00 0.00 0.00 46 1015.2
20170623124826 89 7 1.0 5.0 0.00 0.00 0.00 47 1015.2
20170623124326 89 5 1.0 5.0 0.00 0.00 0.00 48 1015.2
20170623123826 89 3 1.0 2.0 0.00 0.00 0.00 49 1015.2
20170623123326 89 347 0.0 2.0 0.00 0.00 0.00 45 1015.3
20170623122826 88 215 0.0 2.0 0.00 0.00 0.00 47 1015.6
20170623122326 88 326 0.0 2.0 0.00 0.00 0.00 49 1015.6
20170623121826 87 342 0.0 2.0 0.00 0.00 0.00 50 1015.6
20170623121326 87 304 2.0 5.0 0.00 0.00 0.00 48 1015.6
20170623120826 86 285 0.0 2.0 0.00 0.00 0.00 49 1015.6
20170623120326 86 339 2.0 8.0 0.00 0.00 0.00 51 1015.6
20170623115826 86 12 1.0 5.0 0.00 0.00 0.00 50 1015.9
20170623115326 85 16 2.0 8.0 0.00 0.00 0.00 48 1015.9
20170623114826 85 9 4.0 10.0 0.00 0.00 0.00 49 1015.9
20170623114326 85 9 5.0 10.0 0.00 0.00 0.00 46 1016.1
20170623113826 85 27 2.0 5.0 0.00 0.00 0.00 47 1016.3
20170623113326 85 14 2.0 5.0 0.00 0.00 0.00 48 1016.3
20170623112825 84 33 3.0 8.0 0.00 0.00 0.00 47 1016.3
20170623112326 84 33 2.0 5.0 0.00 0.00 0.00 50 1016.3
20170623111826 84 346 1.0 5.0 0.00 0.00 0.00 49 1016.3
20170623111325 84 30 1.0 5.0 0.00 0.00 0.00 48 1016.3
20170623110825 83 27 2.0 5.0 0.00 0.00 0.00 49 1016.3
20170623110325 83 13 3.0 8.0 0.00 0.00 0.00 50 1016.3
20170623105826 83 357 5.0 10.0 0.00 0.00 0.00 48 1016.6
20170623105325 83 309 2.0 8.0 0.00 0.00 0.00 49 1016.6
20170623104826 83 38 3.0 8.0 0.00 0.00 0.00 50 1016.6
20170623104326 83 34 3.0 10.0 0.00 0.00 0.00 49 1016.6
20170623103826 83 10 5.0 8.0 0.00 0.00 0.00 48 1016.7
20170623103325 83 34 5.0 10.0 0.00 0.00 0.00 48 1016.6
20170623102825 83 12 6.0 10.0 0.00 0.00 0.00 50 1016.9
20170623102326 82 153 1.0 8.0 0.00 0.00 0.00 51 1016.9
20170623101826 82 0 3.0 8.0 0.00 0.00 0.00 52 1016.9
20170623101326 82 11 3.0 8.0 0.00 0.00 0.00 53 1016.9
20170623100825 82 18 3.0 8.0 0.00 0.00 0.00 56 1016.9
20170623100326 82 24 3.0 8.0 0.00 0.00 0.00 56 1016.9
20170623095825 82 33 3.0 8.0 0.00 0.00 0.00 58 1016.9
20170623095325 81 353 1.0 5.0 0.00 0.00 0.00 55 1016.9
20170623094826 81 6 1.0 5.0 0.00 0.00 0.00 56 1016.9
20170623094326 81 356 2.0 5.0 0.00 0.00 0.00 55 1017.3
20170623093825 81 349 0.0 5.0 0.00 0.00 0.00 55 1017.3
20170623093326 81 6 3.0 5.0 0.00 0.00 0.00 59 1017.3
20170623092826 81 352 3.0 5.0 0.00 0.00 0.00 58 1017.3
20170623092325 81 9 3.0 5.0 0.00 0.00 0.00 57 1017.3
20170623091826 81 4 2.0 8.0 0.00 0.00 0.00 55 1017.3
20170623091325 81 29 1.0 5.0 0.00 0.00 0.00 52 1017.3
20170623090825 81 7 2.0 5.0 0.00 0.00 0.00 53 1017.3
20170623090326 81 12 2.0 5.0 0.00 0.00 0.00 51 1017.3
20170623085825 81 0 2.0 5.0 0.00 0.00 0.00 50 1017.3
20170623085325 81 14 2.0 5.0 0.00 0.00 0.00 49 1017.3
20170623084825 80 37 2.0 5.0 0.00 0.00 0.00 49 1017.4
20170623084326 80 6 0.0 2.0 0.00 0.00 0.00 48 1017.3
20170623083825 80 4 2.0 5.0 0.00 0.00 0.00 55 1017.3
20170623083326 80 12 3.0 5.0 0.00 0.00 0.00 56 1017.6
20170623082826 80 4 2.0 5.0 0.00 0.00 0.00 52 1017.3
20170623082325 80 1 3.0 5.0 0.00 0.00 0.00 54 1017.3
20170623081825 80 12 1.0 5.0 0.00 0.00 0.00 52 1017.3
20170623081325 80 14 1.0 5.0 0.00 0.00 0.00 52 1017.3
20170623080826 80 4 2.0 5.0 0.00 0.00 0.00 56 1017.3
20170623080325 80 5 2.0 5.0 0.00 0.00 0.00 55 1017.3
20170623075826 80 1 2.0 5.0 0.00 0.00 0.00 54 1017.3
20170623075326 80 8 1.0 5.0 0.00 0.00 0.00 54 1017.3
20170623074826 80 19 2.0 5.0 0.00 0.00 0.00 55 1017.3
20170623074325 80 60 1.0 5.0 0.00 0.00 0.00 53 1017.3
20170623073825 79 11 2.0 5.0 0.00 0.00 0.00 53 1017.3
20170623073325 79 55 1.0 2.0 0.00 0.00 0.00 54 1017.3
20170623072825 79 28 0.0 2.0 0.00 0.00 0.00 53 1017.3
20170623072326 79 357 1.0 2.0 0.00 0.00 0.00 55 1017.2
20170623071825 79 17 2.0 5.0 0.00 0.00 0.00 54 1017.3
20170623071325 78 8 0.0 2.0 0.00 0.00 0.00 53 1017.1
20170623070825 78 9 2.0 5.0 0.00 0.00 0.00 56 1017.3
20170623070325 78 11 2.0 2.0 0.00 0.00 0.00 55 1017.2
20170623065825 78 13 2.0 5.0 0.00 0.00 0.00 56 1017.3
20170623065325 78 30 2.0 5.0 0.00 0.00 0.00 56 1017.3
20170623064825 77 30 2.0 5.0 0.00 0.00 0.00 56 1017.3
20170623064325 77 33 2.0 5.0 0.00 0.00 0.00 56 1017.3
20170623063825 77 23 2.0 5.0 0.00 0.00 0.00 56 1017.3
20170623063325 77 22 2.0 5.0 0.00 0.00 0.00 56 1017.3
20170623062825 77 6 2.0 5.0 0.00 0.00 0.00 60 1017.3
20170623062325 77 35 1.0 5.0 0.00 0.00 0.00 56 1017.3
20170623061825 77 10 2.0 5.0 0.00 0.00 0.00 59 1017.2
20170623061325 78 2 1.0 2.0 0.00 0.00 0.00 58 1017.3
20170623060825 78 4 2.0 5.0 0.00 0.00 0.00 57 1016.9
20170623060325 78 6 0.0 2.0 0.00 0.00 0.00 55 1016.9
20170623055825 78 8 0.0 0.0 0.00 0.00 0.00 55 1016.9
20170623055325 78 0 0.0 0.0 0.00 0.00 0.00 53 1017.3
20170623054825 77 16 0.0 0.0 0.00 0.00 0.00 55 1017.2
20170623054325 77 0 0.0 0.0 0.00 0.00 0.00 55 1016.9
20170623053825 76 12 0.0 0.0 0.00 0.00 0.00 60 1016.9
20170623053325 76 4 0.0 0.0 0.00 0.00 0.00 61 1016.9
20170623052824 75 335 0.0 0.0 0.00 0.00 0.00 66 1016.9
20170623052325 75 292 1.0 2.0 0.00 0.00 0.00 69 1016.9
20170623051825 75 303 0.0 0.0 0.00 0.00 0.00 67 1016.9
20170623051324 74 348 0.0 0.0 0.00 0.00 0.00 68 1016.9
20170623050825 74 300 0.0 2.0 0.00 0.00 0.00 71 1016.9
20170623050325 75 289 0.0 2.0 0.00 0.00 0.00 71 1016.9
20170623045825 75 343 0.0 2.0 0.00 0.00 0.00 69 1016.9
20170623045325 75 357 0.0 2.0 0.00 0.00 0.00 69 1016.9
20170623044824 75 31 1.0 2.0 0.00 0.00 0.00 69 1016.9
20170623044325 75 3 0.0 0.0 0.00 0.00 0.00 69 1016.8
20170623043825 75 15 0.0 0.0 0.00 0.00 0.00 68 1016.6
20170623043325 75 347 0.0 0.0 0.00 0.00 0.00 68 1016.6
20170623042825 74 8 0.0 2.0 0.00 0.00 0.00 67 1016.6
20170623042325 74 15 0.0 0.0 0.00 0.00 0.00 65 1016.6
20170623041825 74 7 0.0 0.0 0.00 0.00 0.00 65 1016.6
20170623041325 74 359 0.0 0.0 0.00 0.00 0.00 64 1016.4
20170623040825 73 300 0.0 0.0 0.00 0.00 0.00 62 1016.6
20170623040325 73 276 0.0 0.0 0.00 0.00 0.00 64 1016.3
20170623035824 73 309 0.0 0.0 0.00 0.00 0.00 64 1016.6
20170623035324 73 319 0.0 0.0 0.00 0.00 0.00 64 1016.6
20170623034825 73 331 0.0 0.0 0.00 0.00 0.00 64 1016.6
20170623034325 72 326 0.0 0.0 0.00 0.00 0.00 64 1016.3
20170623033824 72 306 0.0 0.0 0.00 0.00 0.00 65 1016.3
20170623033324 72 300 0.0 0.0 0.00 0.00 0.00 64 1016.3
20170623032825 72 355 0.0 0.0 0.00 0.00 0.00 66 1016.3
20170623032325 72 348 0.0 0.0 0.00 0.00 0.00 66 1016.3
20170623031824 72 108 0.0 0.0 0.00 0.00 0.00 67 1016.3
20170623031325 72 216 0.0 0.0 0.00 0.00 0.00 67 1016.3
20170623030825 72 257 0.0 0.0 0.00 0.00 0.00 68 1016.3
20170623030325 72 260 0.0 0.0 0.00 0.00 0.00 69 1016.3
20170623025824 72 205 0.0 0.0 0.00 0.00 0.00 69 1016.3
20170623025324 72 226 0.0 0.0 0.00 0.00 0.00 69 1016.0
20170623024825 72 207 0.0 0.0 0.00 0.00 0.00 67 1016.0
20170623024325 72 241 0.0 0.0 0.00 0.00 0.00 69 1016.3
20170623023824 72 286 0.0 0.0 0.00 0.00 0.00 70 1015.9
20170623023324 72 324 0.0 0.0 0.00 0.00 0.00 70 1016.0
20170623022824 72 257 0.0 0.0 0.00 0.00 0.00 71 1016.3
20170623022325 72 296 0.0 2.0 0.00 0.00 0.00 71 1016.3
20170623021824 72 282 0.0 2.0 0.00 0.00 0.00 71 1016.1
20170623021324 72 351 0.0 2.0 0.00 0.00 0.00 71 1015.9
20170623020824 72 347 0.0 0.0 0.00 0.00 0.00 71 1015.9
20170623020325 72 355 0.0 0.0 0.00 0.00 0.00 72 1015.9
20170623015824 72 327 0.0 0.0 0.00 0.00 0.00 71 1015.9
20170623015324 72 349 0.0 0.0 0.00 0.00 0.00 72 1015.9